This is the latest recevied weather packets stored in our database for station/object IZ1UQG-1. If no packets are shown the sender has not sent any weather packets the latest 10 day(s).
| Time | Temp. | Humidity | Pressure | Rain* | Wind** | Luminosity | Snow |
|---|---|---|---|---|---|---|---|
| 1777661643 | 19.44° C | 44% | 1023.5 hPa | 9.65 mm | - | - | - |
| 1777661343 | 20° C | 44% | 1023.4 hPa | 7.87 mm | - | - | - |
| 1777661043 | 20° C | 44% | 1023.4 hPa | 15.75 mm | - | - | - |
| 1777660743 | 20° C | 44% | 1023.3 hPa | 21.84 mm | - | - | - |
| 1777660443 | 20.56° C | 44% | 1023.3 hPa | 29.21 mm | - | - | - |
| 1777660143 | 20.56° C | 44% | 1023.1 hPa | 16.26 mm | - | - | - |
| 1777659843 | 20.56° C | 44% | 1023 hPa | 12.7 mm | - | - | - |
| 1777659543 | 20.56° C | 44% | 1022.9 hPa | 23.62 mm | - | - | - |
| 1777659243 | 21.11° C | 44% | 1022.7 hPa | 31.75 mm | - | - | - |
| 1777658943 | 21.11° C | 43% | 1022.8 hPa | 15.75 mm | - | - | - |
| 1777658643 | 21.11° C | 43% | 1022.8 hPa | 5.33 mm | - | - | - |
| 1777658343 | 21.11° C | 42% | 1022.5 hPa | 215.9 mm | - | - | - |
| 1777658043 | 21.67° C | 42% | 1022.6 hPa | 247.9 mm | - | - | - |
| 1777657743 | 21.67° C | 41% | 1022.5 hPa | 237.74 mm | - | - | - |
| 1777657443 | 21.67° C | 41% | 1022.5 hPa | 210.82 mm | - | - | - |
| 1777657143 | 22.22° C | 41% | 1022.4 hPa | 195.58 mm | - | - | - |
| 1777656843 | 22.22° C | 41% | 1022.4 hPa | 224.79 mm | - | - | - |
| 1777656543 | 22.22° C | 41% | 1022.2 hPa | 211.84 mm | - | - | - |
| 1777656243 | 22.22° C | 41% | 1022.3 hPa | 203.45 mm | - | - | - |
| 1777655943 | 22.22° C | 41% | 1022.2 hPa | 170.69 mm | - | - | - |
| 1777655643 | 22.22° C | 41% | 1022.3 hPa | 200.41 mm | - | - | - |
| 1777655343 | 22.22° C | 40% | 1022.3 hPa | 198.88 mm | - | - | - |
| 1777655043 | 22.78° C | 40% | 1022.2 hPa | 214.38 mm | - | - | - |
| 1777654743 | 22.22° C | 40% | 1022.3 hPa | 174.5 mm | - | - | - |
| 1777654443 | 22.78° C | 40% | 1022.4 hPa | 214.88 mm | - | - | - |
* Rain latest hour (hover to see other rain measurements)
** Current wind speed in m/s (hover to see current wind gust speed)